CW8809 Weather Reports


time (UTC)temp
C
wind
direction
speed
KPH
gust
KPH
rain 1hr
cm
rain 24hr
cm
rain mn
cm
humidity
%
barometer
mb
20260510115743 9 90 0.0 0.0 0.00 0.00 0.00 82 1032.2
20260510114741 9 90 0.0 0.0 0.00 0.00 0.00 82 1032.1
20260510113739 10 90 0.0 0.0 0.00 0.00 0.00 82 1031.8
20260510112737 10 90 0.0 0.0 0.00 0.00 0.00 82 1031.8
20260510111735 10 90 0.0 0.0 0.00 0.00 0.00 82 1031.4
20260510110733 10 90 0.0 0.0 0.00 0.00 0.00 81 1031.4
20260510105730 10 90 0.0 0.0 0.00 0.00 0.00 81 1031.5
20260510104728 11 135 0.0 0.0 0.00 0.00 0.00 81 1031.2
20260510103725 11 22 0.0 0.0 0.00 0.00 0.00 80 1031.1
20260510102723 11 67 0.0 0.0 0.00 0.00 0.00 80 1031.0
20260510101720 11 90 0.0 0.0 0.00 0.00 0.00 80 1030.6
20260510100718 11 45 0.0 0.0 0.00 0.00 0.00 79 1030.5
20260510095716 11 90 0.0 0.0 0.00 0.00 0.00 79 1030.4
20260510094714 12 45 0.0 0.0 0.00 0.00 0.00 78 1030.3
20260510093712 12 67 0.0 0.0 0.00 0.00 0.00 78 1030.3
20260510092709 12 22 0.0 0.0 0.00 0.00 0.00 77 1030.0
20260510091707 12 67 0.0 0.0 0.00 0.00 0.00 77 1030.0
20260510090706 12 45 0.0 0.0 0.00 0.00 0.00 76 1029.7
20260510085632 12 67 0.0 0.0 0.00 0.00 0.00 74 1029.4
20260510084630 12 90 0.0 0.0 0.00 0.00 0.00 72 1029.4
20260510083627 12 67 0.0 0.0 0.00 0.00 0.00 71 1029.4
20260510082625 12 67 0.0 0.0 0.00 0.00 0.00 71 1029.1
20260510081622 12 0 0.0 0.0 0.00 0.00 0.00 70 1028.8
20260510080620 12 315 0.0 0.0 0.00 0.00 0.00 70 1028.8
20260510075618 12 315 0.0 0.0 0.00 0.00 0.00 69 1028.5
20260510074615 13 315 0.0 0.0 0.00 0.00 0.00 67 1028.6
20260510073614 13 315 0.0 0.0 0.00 0.00 0.00 65 1028.3
20260510072613 15 315 0.0 0.0 0.00 0.00 0.00 64 1028.4
20260510071611 15 315 0.0 0.0 0.00 0.00 0.00 62 1028.2
20260510070609 15 315 0.0 0.0 0.00 0.00 0.00 60 1028.2
20260510065607 16 315 0.0 0.0 0.00 0.00 0.00 58 1028.3
20260510064606 16 0 0.0 0.0 0.00 0.00 0.00 58 1028.3
20260510063604 17 337 0.0 0.0 0.00 0.00 0.00 57 1028.1
20260510062459 17 0 0.0 0.0 0.00 0.00 0.00 55 1028.1
20260510061458 17 22 0.0 0.0 0.00 0.00 0.00 55 1028.1
20260510060456 17 315 0.0 0.0 0.00 0.00 0.00 55 1028.2
20260510055453 17 0 0.0 0.0 0.00 0.00 0.00 53 1027.8
20260510054451 18 0 0.0 0.0 0.00 0.00 0.00 53 1027.9
20260510053449 18 0 0.0 0.0 0.00 0.00 0.00 52 1027.8
20260510052447 18 0 0.0 0.0 0.00 0.00 0.00 52 1027.8
20260510051413 18 22 0.0 0.0 0.00 0.00 0.00 51 1027.8
20260510050340 18 315 0.0 0.0 0.00 0.00 0.00 50 1027.9
20260510045338 18 0 0.0 0.0 0.00 0.00 0.00 52 1027.6
20260510044305 18 67 0.0 0.0 0.00 0.00 0.00 53 1027.9
20260510043303 18 0 0.0 0.0 0.00 0.00 0.00 52 1028.0
20260510042305 18 315 0.0 0.0 0.00 0.00 0.00 51 1027.6
20260510041259 18 45 0.0 0.0 0.00 0.00 0.00 53 1028.0
20260510040256 18 90 0.0 0.0 0.00 0.00 0.00 52 1028.0
20260510035254 18 0 0.0 0.0 0.00 0.00 0.00 52 1028.0
20260510034252 18 112 0.0 0.0 0.00 0.00 0.00 54 1028.0
20260510033250 18 67 0.0 0.0 0.00 0.00 0.00 55 1027.9
20260510032247 18 180 0.0 0.0 0.00 0.00 0.00 55 1027.9
20260510031245 17 45 0.0 0.0 0.00 0.00 0.00 55 1027.9
20260510030242 17 270 0.0 0.0 0.00 0.00 0.00 56 1028.2
20260510025240 17 157 0.0 0.0 0.00 0.00 0.00 57 1028.2
20260510024238 17 112 0.0 0.0 0.00 0.00 0.00 56 1028.5
20260510023236 16 247 0.0 0.0 0.00 0.00 0.00 58 1028.5
20260510022235 16 22 0.0 0.0 0.00 0.00 0.00 58 1028.8
20260510021233 16 0 0.0 0.0 0.00 0.00 0.00 62 1028.8
20260510020159 15 0 0.0 0.0 0.00 0.00 0.00 62 1029.0
20260510015158 15 247 0.0 0.0 0.00 0.00 0.00 62 1029.0
20260510014156 15 90 0.0 0.0 0.00 0.00 0.00 65 1029.0
20260510013155 15 22 0.0 0.0 0.00 0.00 0.00 64 1029.3
20260510012152 15 315 0.0 0.0 0.00 0.00 0.00 66 1029.3
20260510011151 14 292 0.0 0.0 0.00 0.00 0.00 67 1029.2
20260510010149 13 22 0.0 0.0 0.00 0.00 0.00 69 1029.2
20260510005147 12 157 0.0 0.0 0.00 0.00 0.00 73 1029.0
20260510004145 12 22 0.0 0.0 0.00 0.00 0.00 73 1029.0
20260510003144 11 225 0.0 0.0 0.00 0.00 0.00 75 1029.0
20260510002141 11 0 0.0 0.0 0.00 0.00 0.00 75 1028.9
20260510001139 11 67 0.0 0.0 0.00 0.00 0.00 77 1028.9
20260510000136 10 90 0.0 0.0 0.00 0.00 0.00 79 1028.8
20260509235103 10 22 0.0 0.0 0.00 0.00 0.00 79 1028.8
20260509234101 9 135 0.0 0.0 0.00 0.00 0.00 81 1028.7
20260509233058 9 67 0.0 0.0 0.00 0.00 0.00 82 1028.7
20260509232057 8 135 0.0 0.0 0.00 0.00 0.00 82 1028.7
20260509231055 8 112 0.0 0.0 0.00 0.00 0.00 81 1028.7
20260509230053 8 157 0.0 0.0 0.00 0.00 0.00 82 1028.7
20260509225052 8 157 0.0 0.0 0.00 0.00 0.00 83 1028.7
20260509224018 7 67 0.0 0.0 0.00 0.00 0.00 84 1028.6
20260509223016 6 67 0.0 0.0 0.00 0.00 0.00 84 1028.4
20260509222014 6 45 0.0 0.0 0.00 0.00 0.00 83 1028.4
20260509221012 5 22 0.0 0.0 0.00 0.00 0.00 81 1028.3
20260509220009 3 0 0.0 0.0 0.00 0.00 0.00 82 1027.7
20260509214935 3 0 0.0 0.0 0.00 0.00 0.00 84 1027.7
20260509213933 3 0 0.0 0.0 0.00 0.00 0.00 84 1027.7
20260509212931 3 0 0.0 0.0 0.00 0.00 0.00 84 1027.4
20260509211929 3 0 0.0 0.0 0.00 0.00 0.00 83 1027.4
20260509210927 3 0 0.0 0.0 0.00 0.00 0.00 83 1027.1
20260509205926 3 0 0.0 0.0 0.00 0.00 0.00 83 1027.2
20260509204923 3 0 0.0 0.0 0.00 0.00 0.00 83 1026.9
20260509203921 3 0 0.0 0.0 0.00 0.00 0.00 83 1027.0
20260509202920 3 0 0.0 0.0 0.00 0.00 0.00 82 1027.0
20260509201918 3 0 0.0 0.0 0.00 0.00 0.00 81 1026.8
20260509200916 4 0 0.0 0.0 0.00 0.00 0.00 81 1026.8
20260509195914 4 0 0.0 0.0 0.00 0.00 0.00 81 1026.8
20260509194912 4 0 0.0 0.0 0.00 0.00 0.00 81 1026.8
20260509193910 4 0 0.0 0.0 0.00 0.00 0.00 81 1026.6
20260509192908 4 0 0.0 0.0 0.00 0.00 0.00 81 1026.7
20260509191906 4 0 0.0 0.0 0.00 0.00 0.00 81 1026.7
20260509190904 4 0 0.0 0.0 0.00 0.00 0.00 81 1026.4
20260509185902 4 0 0.0 0.0 0.00 0.00 0.00 81 1026.1
20260509184859 4 0 0.0 0.0 0.00 0.00 0.00 81 1026.2
20260509183857 5 0 0.0 0.0 0.00 0.00 0.00 80 1026.3
20260509182854 5 337 0.0 0.0 0.00 0.00 0.00 79 1026.3
20260509181852 5 337 0.0 0.0 0.00 0.00 0.00 79 1026.3
20260509180850 5 337 0.0 0.0 0.00 0.00 0.00 79 1026.3
20260509175848 5 337 0.0 0.0 0.00 0.00 0.00 78 1026.0
20260509174814 4 337 0.0 0.0 0.00 0.00 0.00 79 1026.0
20260509173812 3 337 0.0 0.0 0.00 0.00 0.00 81 1025.9
20260509172811 3 337 0.0 0.0 0.00 0.00 0.00 83 1025.9
20260509171809 3 337 0.0 0.0 0.00 0.00 0.00 83 1026.3
20260509170734 3 337 0.0 0.0 0.00 0.00 0.00 83 1026.3
20260509165733 3 337 0.0 0.0 0.00 0.00 0.00 82 1026.0
20260509164731 4 337 0.0 0.0 0.00 0.00 0.00 82 1026.1
20260509163729 4 337 0.0 0.0 0.00 0.00 0.00 81 1026.1
20260509162727 4 337 0.0 0.0 0.00 0.00 0.00 81 1026.1
20260509161725 5 22 0.0 0.0 0.00 0.00 0.00 81 1026.1
20260509160722 4 22 0.0 0.0 0.00 0.00 0.00 82 1026.1
20260509155720 4 22 0.0 0.0 0.00 0.00 0.00 82 1026.1
20260509154718 4 22 0.0 0.0 0.00 0.00 0.00 82 1026.1
20260509153716 4 22 0.0 0.0 0.00 0.00 0.00 82 1026.4
20260509152714 4 22 0.0 0.0 0.00 0.00 0.00 83 1026.4
20260509151711 4 22 0.0 0.0 0.00 0.00 0.00 83 1026.3
20260509150637 5 22 0.0 0.0 0.00 0.00 0.00 83 1026.3
20260509145635 5 22 0.0 0.0 0.00 0.00 0.00 83 1026.4
20260509144633 5 22 0.0 0.0 0.00 0.00 0.00 83 1026.4
20260509143559 5 22 0.0 0.0 0.00 0.00 0.00 82 1026.4
20260509142556 5 22 0.0 0.0 0.00 0.00 0.00 82 1026.3
20260509141554 5 22 0.0 0.0 0.00 0.00 0.00 82 1026.3
20260509140551 5 45 0.0 0.0 0.00 0.00 0.00 82 1025.9
20260509135447 5 0 0.0 0.0 0.00 0.00 0.00 82 1026.2
20260509134444 5 22 0.0 0.0 0.00 0.00 0.00 83 1026.1
20260509133408 5 45 0.0 0.0 0.00 0.00 0.00 83 1026.1
20260509132406 5 0 0.0 0.0 0.00 0.00 0.00 84 1026.1
20260509131301 6 292 0.0 0.0 0.00 0.00 0.00 84 1026.0
20260509130259 6 292 0.0 0.0 0.00 0.00 0.00 84 1025.9
20260509125256 5 292 0.0 0.0 0.00 0.00 0.00 84 1025.8
20260509124254 6 292 0.0 0.0 0.00 0.00 0.00 84 1025.8
20260509123148 6 292 0.0 0.0 0.00 0.00 0.00 84 1025.8
20260509122115 6 292 0.0 0.0 0.00 0.00 0.00 84 1025.8
20260509121041 6 292 0.0 0.0 0.00 0.00 0.00 84 1025.8